Theta_e
312 309 308 310 309 311 312 312 313 312 312 312 312 312 312 312 311 312 314 314 314 316 320 321 321 321 320 320 319 318 317 315 314 314 313 313 313 315 320 329 330 325 330 335
310 309 309 309 310 310 311 313 314 314 313 313 311 310 309 310 311 312 312 314 316 320 317 317 318 318 317 316 315 314 313 313 313 313 312 312 313 315 316 315 317 324 325 328
309 310 311 311 311 312 313 313 313 313 313 313 312 313 311 313 313 313 314 314 317 317 314 314 314 313 313 313 312 312 311 311 311 311 311 311 311 311 311 312 314 316 317 323
312 312 312 313 314 313 313 312 313 314 311 312 312 315 313 313 312 312 315 316 315 313 312 311 310 311 311 309 310 310 310 309 309 309 309 310 310 310 310 311 311 311 312 315
314 313 313 314 314 314 315 315 315 313 311 310 313 313 312 311 311 315 313 312 310 309 309 308 308 308 308 308 307 306 305 305 305 306 306 306 308 308 309 310 310 311 311 311
313 314 313 313 313 313 314 313 310 309 309 313 311 312 312 315 317 314 312 309 308 307 306 305 305 306 304 303 302 302 302 303 304 305 305 306 306 307 308 308 309 310 311 311
313 313 311 312 313 313 314 314 317 312 311 312 312 312 314 314 311 310 308 306 306 305 305 305 304 303 302 301 300 301 303 303 304 305 305 306 306 307 307 308 309 310 310 311
311 311 311 312 313 313 314 315 315 316 314 311 311 310 314 311 308 308 308 306 305 303 303 303 302 301 299 299 300 301 302 303 304 304 305 305 305 305 306 306 308 309 310 311
310 311 311 310 311 312 312 311 311 313 312 312 310 313 312 312 309 306 305 306 304 303 303 302 301 300 299 299 300 301 302 303 303 302 302 303 304 304 305 305 305 307 309 311
310 311 312 312 309 309 311 309 311 311 316 315 312 311 314 314 309 309 306 304 303 302 301 301 301 299 297 297 297 297 298 299 299 299 299 300 301 302 302 303 305 305 306 308
310 310 311 311 309 308 307 307 307 312 312 313 313 308 313 314 311 310 307 304 301 299 298 297 297 296 295 295 298 298 297 296 296 296 297 297 299 300 300 301 302 303 305 307
309 309 310 311 310 307 307 307 308 311 310 308 307 307 313 311 311 308 302 300 299 298 298 297 295 295 295 295 296 294 293 292 292 293 294 295 296 297 298 299 301 302 304 306
308 308 310 309 309 309 310 308 308 309 309 309 309 307 312 311 310 304 301 299 297 295 294 294 294 294 294 292 291 291 291 292 292 292 292 292 293 294 295 296 298 300 301 302
309 308 308 309 310 308 307 309 307 308 310 309 308 307 307 309 306 301 300 297 295 294 293 291 290 289 290 291 291 291 291 291 291 291 291 290 290 290 290 292 294 296 297 299
305 307 308 308 308 310 310 310 309 307 307 307 306 306 305 304 302 299 297 296 294 293 291 290 289 289 291 291 291 292 292 291 291 291 290 289 289 289 289 290 292 293 294 295
304 305 304 304 305 305 307 306 304 303 304 305 304 304 301 299 297 296 295 294 293 291 290 288 287 290 290 291 292 292 293 293 292 291 290 290 290 289 289 290 290 291 292 294
304 304 303 304 303 301 302 302 302 303 305 305 302 304 299 297 297 295 292 292 291 289 287 287 290 290 291 291 292 292 292 292 292 293 292 292 292 290 289 289 289 290 290 291
304 304 303 305 302 304 303 303 303 303 301 302 302 300 297 296 293 292 291 290 288 287 286 288 289 290 290 291 292 290 288 288 290 292 293 293 292 291 290 290 289 289 289 290
304 302 301 301 302 302 303 300 298 298 300 297 301 296 294 292 291 290 289 288 287 287 287 288 288 289 288 286 284 284 284 284 284 284 285 286 290 291 291 291 290 290 290 291
302 301 299 299 301 295 294 300 300 297 297 296 296 298 294 291 292 290 289 287 287 287 287 287 287 286 285 285 285 285 285 284 283 282 282 284 284 283 284 286 288 289 289 289
301 300 300 299 298 300 299 298 299 299 296 295 295 295 297 295 292 290 288 287 287 287 286 286 285 286 285 285 285 285 285 285 284 283 283 283 283 283 283 283 283 283 283 283
300 301 297 296 295 298 296 298 300 295 294 294 294 294 293 292 289 288 288 288 287 287 286 285 285 285 286 286 285 285 285 284 284 284 284 283 283 282 283 283 283 283 284 284
300 298 297 299 295 294 295 295 295 295 294 293 292 290 290 289 288 288 288 288 287 286 286 285 285 285 285 285 285 284 284 283 283 283 283 283 283 283 283 283 283 283 282 282
301 301 296 298 295 295 294 293 293 293 293 292 291 290 289 288 288 288 287 286 286 285 285 285 284 283 283 284 284 283 283 283 283 283 283 282 283 283 283 281 280 281 281 281
299 300 298 297 296 295 294 293 291 291 291 291 290 289 289 288 287 287 286 286 285 285 285 283 282 282 282 283 283 283 282 282 283 283 282 282 282 282 281 281 280 279 278 279
296 299 297 294 295 295 294 292 291 290 290 290 289 288 288 287 287 286 286 285 285 284 283 282 282 281 281 282 282 282 282 282 282 282 282 281 281 280 280 280 279 279 278 278
Wind_Speed
6 4 7 15 10 8 6 9 15 11 7 10 12 19 18 20 16 17 25 26 8 23 32 30 25 20 16 12 10 8 7 7 8 10 12 15 17 18 23 28 23 19 18 27
3 8 11 9 10 12 13 14 15 16 12 13 12 12 7 7 12 20 23 28 14 27 28 26 22 18 12 8 6 3 4 7 10 12 12 13 17 20 22 24 26 29 26 22
10 8 7 11 13 14 17 12 13 16 10 3 5 13 7 19 20 26 28 12 19 23 24 24 21 18 13 9 7 7 8 9 10 13 17 16 17 18 23 25 27 27 29 30
9 18 18 16 12 10 17 6 11 8 7 8 6 12 12 16 12 6 11 21 30 29 28 22 20 18 13 12 9 7 8 9 11 14 18 21 23 25 24 26 28 28 28 30
7 2 5 10 18 8 20 11 7 3 5 3 23 2 9 7 14 6 11 21 27 27 26 23 19 15 12 9 10 10 11 12 14 15 18 21 24 27 29 30 31 30 29 30
13 19 6 15 16 13 17 4 7 4 1 4 16 6 6 6 8 12 17 19 20 26 25 22 17 13 13 12 13 14 16 18 19 20 21 23 25 28 31 33 34 35 33 32
10 14 6 12 13 3 3 5 2 3 1 6 4 2 3 7 14 15 14 23 20 19 22 21 20 19 18 18 18 18 19 21 22 24 24 25 26 28 31 32 35 37 37 36
5 6 5 3 5 6 6 8 5 4 3 4 2 5 3 7 13 17 10 14 21 15 19 19 16 17 20 20 23 23 24 24 26 27 27 27 27 29 30 32 34 36 38 38
5 6 2 3 3 6 2 3 6 1 2 2 3 2 4 8 10 12 9 3 9 8 6 10 9 17 23 28 27 24 23 25 26 27 28 27 27 28 30 31 32 34 35 37
7 9 1 1 2 1 5 7 3 2 3 5 3 3 4 10 11 9 9 8 7 7 5 7 7 16 22 23 22 23 24 26 26 26 26 27 27 27 28 29 32 33 34 34
1 5 3 2 4 7 2 2 2 5 4 3 2 4 5 9 9 11 12 17 16 15 10 8 10 14 16 17 22 25 26 25 25 25 26 26 26 27 27 28 29 31 31 32
2 2 4 6 4 4 3 5 6 4 4 4 2 5 4 10 12 16 18 16 12 9 8 10 12 13 17 21 24 24 24 23 24 25 24 24 25 26 25 25 26 26 28 29
7 2 1 5 4 3 3 4 3 2 4 12 5 5 5 8 13 24 20 16 12 9 8 11 13 17 18 19 21 23 23 24 25 24 24 24 23 24 23 22 21 22 23 24
7 4 6 9 3 4 2 5 2 5 3 3 8 11 6 9 15 18 19 14 11 9 9 10 12 12 17 21 23 24 26 26 24 23 23 23 23 23 23 20 18 17 18 19
5 5 4 4 2 3 3 9 14 8 9 10 11 4 7 7 10 13 15 13 11 10 10 11 12 15 19 21 23 26 27 27 26 23 21 20 20 22 23 22 19 18 17 16
1 3 2 2 3 4 7 11 9 8 6 5 5 4 6 14 19 15 10 9 9 9 9 8 9 15 19 21 23 26 28 28 26 25 24 22 22 23 25 26 25 25 25 25
6 5 2 3 1 1 4 6 11 7 4 1 3 4 5 5 8 7 7 8 7 6 5 8 13 16 17 19 21 24 23 22 25 28 28 27 27 28 28 28 30 31 33 34
6 6 3 2 1 4 1 5 6 11 6 6 8 8 7 10 9 6 4 5 5 5 7 10 11 13 15 16 18 21 23 24 25 24 25 26 27 29 31 33 36 38 41 43
5 4 3 3 3 1 1 4 2 3 2 3 6 7 12 17 16 9 4 5 8 9 12 13 14 16 17 18 17 18 21 24 26 27 26 24 23 24 27 31 34 38 42 46
5 4 4 2 3 5 5 1 6 3 4 4 4 9 13 16 2 3 9 10 12 12 12 14 15 17 16 15 14 17 19 22 27 29 28 24 24 27 29 29 31 34 38 41
3 2 5 2 2 4 3 1 1 3 5 2 3 6 9 6 5 18 15 14 11 11 11 12 13 14 13 13 13 15 16 19 18 21 24 25 25 27 29 30 32 34 38 40
5 5 3 3 2 7 2 2 5 2 3 2 2 4 8 15 21 21 18 17 14 12 10 10 9 10 10 9 10 15 17 15 13 15 20 23 25 27 28 30 33 35 36 39
0 5 4 4 4 5 5 6 3 3 6 3 4 9 20 25 24 21 19 16 14 13 11 7 6 7 7 8 10 14 16 12 13 17 20 22 25 27 29 32 34 36 38 40
1 4 4 3 3 7 8 5 3 3 5 8 10 15 19 23 22 21 19 17 15 12 10 6 8 11 13 11 11 13 12 12 14 18 21 24 26 28 30 34 35 35 37 38
2 4 5 3 6 10 7 6 6 8 9 11 13 16 18 21 21 20 19 16 14 11 9 8 11 13 14 14 14 13 12 13 15 17 19 21 23 25 27 29 32 33 31 31
2 3 4 4 14 7 11 10 9 12 13 13 16 18 18 20 21 20 19 16 14 11 9 10 11 12 14 12 11 12 13 13 14 17 19 20 22 23 24 25 26 27 27 26
Wind_Direction
218 170 204 220 212 234 270 280 283 274 256 286 281 278 296 306 307 295 302 304 255 154 151 146 149 151 158 156 180 204 243 268 289 293 285 271 263 258 256 257 261 267 272 245
294 243 228 218 232 243 249 259 276 285 286 273 292 282 294 311 303 307 301 296 173 137 124 124 136 150 145 134 98 72 353 333 330 323 317 307 295 287 283 279 268 262 264 269
214 242 216 217 234 251 253 262 277 286 326 318 304 290 322 295 309 310 325 300 130 120 110 116 113 98 93 93 66 33 9 349 330 317 309 301 294 284 284 283 278 274 267 262
246 234 247 264 259 253 275 264 289 313 2 302 163 291 281 287 292 17 49 110 123 118 119 105 96 95 87 55 44 26 6 347 332 322 313 315 314 308 302 294 287 280 275 269
212 223 240 262 260 270 278 290 247 231 267 358 287 197 268 339 295 63 68 82 91 105 109 99 83 75 68 46 30 23 360 346 338 329 321 315 309 305 302 298 293 288 279 274
247 253 227 246 258 238 254 216 15 334 201 247 264 180 284 18 321 77 65 59 82 93 85 77 71 50 40 21 9 3 351 345 335 331 326 318 311 304 300 296 295 291 287 281
276 257 243 236 252 197 129 82 306 310 215 234 39 323 67 42 52 62 71 78 39 55 72 52 33 20 7 3 3 357 350 342 338 333 329 323 316 310 305 301 296 293 291 288
218 307 212 214 184 197 187 166 167 249 226 260 56 249 180 90 73 85 40 85 90 40 50 50 20 7 353 352 357 351 349 341 338 332 328 324 319 314 310 306 300 297 296 294
210 243 101 93 162 140 198 160 171 1 278 307 222 99 198 153 137 130 180 133 81 76 72 64 15 345 342 347 350 349 344 342 335 332 328 324 319 315 312 309 305 302 298 297
225 261 316 54 111 140 162 166 95 80 252 245 252 239 193 201 189 174 146 135 138 132 71 56 6 345 339 343 349 353 353 349 340 335 332 328 324 318 312 310 308 303 300 299
67 196 240 155 197 181 143 189 133 151 160 230 256 249 206 198 172 171 168 145 130 114 105 63 13 349 341 347 354 356 353 351 346 343 340 335 328 321 314 311 310 305 301 301
136 188 192 203 211 167 167 203 173 149 223 241 201 257 167 155 181 120 115 110 114 93 51 19 6 356 359 4 4 3 1 359 358 353 349 345 339 332 325 318 315 313 309 302
167 219 111 331 358 340 209 210 212 145 144 240 233 262 195 133 136 131 127 127 117 88 42 26 17 17 13 12 17 16 12 9 4 4 1 0 356 351 344 334 326 320 315 308
113 154 191 232 196 137 176 325 246 203 171 212 237 263 258 143 128 137 135 126 109 73 44 34 33 27 28 28 27 25 23 18 13 10 10 12 13 12 7 1 354 347 340 327
118 201 211 243 195 175 161 244 261 274 235 224 250 245 44 78 117 117 115 105 86 68 52 42 34 34 38 35 35 35 32 27 22 20 20 24 28 28 27 26 28 29 25 20
164 201 155 284 276 268 244 249 258 258 265 251 208 117 89 82 84 80 79 76 66 53 42 39 41 49 45 40 39 39 37 33 30 31 31 28 36 38 41 42 43 47 50 52
162 142 109 264 226 0 259 223 238 250 63 156 183 153 147 88 85 77 76 78 79 71 54 54 51 50 45 41 41 42 41 38 37 37 36 38 41 47 48 52 53 55 55 57
150 134 105 220 77 238 131 29 32 105 58 34 96 133 138 139 111 85 63 111 124 121 95 81 76 71 61 55 52 50 45 41 39 37 35 38 42 50 56 58 60 60 59 59
139 130 163 157 192 24 253 344 72 119 194 2 143 133 142 141 126 113 127 142 129 111 100 94 90 81 69 61 60 62 57 52 48 44 43 40 38 44 53 56 58 62 62 60
114 117 128 122 178 220 233 101 100 110 285 150 113 177 170 172 208 158 157 140 123 115 108 101 93 88 80 67 58 56 54 53 50 47 47 46 48 50 52 55 57 58 60 61
127 74 163 139 199 273 141 256 24 113 237 96 334 272 209 197 231 154 152 139 118 108 106 102 88 81 76 70 66 62 53 50 51 51 52 51 51 54 55 55 56 59 62 62
155 152 185 94 116 257 151 139 197 145 122 207 278 271 194 161 140 141 143 144 139 125 110 93 97 93 85 74 62 66 57 44 47 51 52 52 51 53 54 54 55 54 53 56
98 173 176 180 207 135 84 105 128 210 179 174 167 141 146 138 141 145 145 145 139 131 119 103 91 98 94 77 62 62 60 53 56 58 55 50 48 47 48 47 47 48 48 48
36 145 102 136 182 148 137 128 168 162 171 166 164 154 151 147 149 145 143 139 133 127 114 105 106 97 90 86 74 68 73 70 63 60 56 49 46 43 42 43 42 42 42 40
197 118 123 91 130 133 149 165 172 143 149 154 159 159 156 152 148 147 143 137 133 126 119 121 108 101 92 87 86 82 72 73 69 63 56 51 48 46 45 45 44 43 45 42
4 143 165 214 175 137 167 168 171 158 158 162 158 154 156 154 150 151 140 136 129 118 118 116 113 101 91 86 89 83 74 64 63 60 53 50 47 44 42 43 44 45 47 45